Weather History for KRKD - March, 2014

Change the Weather History Date:

Thursday, March 13, 2014

  Actual Average Record
Temperature  
Mean Temperature 21 °F -  
Max Temperature 30 °F 34 °F 51 °F (2006)
Min Temperature 12 °F 21 °F 3 °F (1998)
Degree Days  
Heating Degree Days 44    
Moisture  
Dew Point 12 °F    
Average Humidity 76    
Maximum Humidity 93    
Minimum Humidity 58    
Precipitation  
Precipitation 0.05 in - - ()
Sea Level Pressure  
Sea Level Pressure 29.32 in    
Wind  
Wind Speed 12 mph (NNW)    
Max Wind Speed 25 mph    
Max Gust Speed 38 mph    
Visibility 6 miles    
Events      
Averages and records for this station are not official NWS values.
T = Trace of Precipitation, MM = Missing Value Source: NWS Daily Summary

Daily Weather History Graph

Daily Weather History Graph

Search for Another Location

Airport or City:

Trip Planner

Search our weather history database for the weather conditions in past years. The results will help you decide how hot, cold, wet, or windy it might be!

Date:

Astronomy

Mar. 13, 2014 Rise Set
Actual Time 6:52 AM EDT 6:40 PM EDT
Civil Twilight 6:23 AM EDT 7:08 PM EDT
Nautical Twilight 5:50 AM EDT 7:42 PM EDT
Astronomical Twilight 5:16 AM EDT 8:16 PM EDT
Moon 3:58 PM EDT (3/13) 5:02 AM EDT (3/13)
Length of Visible Light 12h 45m
Length of Day
11h 47m
Waxing Gibbous, 91% of the Moon is Illuminated
Mar 13
Waxing Gibbous
Mar 16
Full
Mar 23
Last Quarter
Mar 30
New
Apr 7
First Quarter

Hourly Weather History & Observations

Time (EDT) Temp. Windchill Dew Point Humidity Pressure Visibility Wind Dir Wind Speed Gust Speed Precip Events Conditions
12:15 AM 30.2 °F 20.2 °F 28.4 °F 93% 29.09 in 9.0 mi NNE 12.7 mph 24.2 mph N/A   Overcast
12:35 AM 28.4 °F 21.2 °F 26.6 °F 93% 29.08 in 8.0 mi NNW 6.9 mph 28.8 mph N/A   Overcast
12:55 AM 26.6 °F 14.7 °F 24.8 °F 93% 29.05 in 10.0 mi NNE 15.0 mph 27.6 mph N/A   Overcast
1:15 AM 26.6 °F 16.2 °F 24.8 °F 93% 29.07 in 10.0 mi North 11.5 mph 23.0 mph 0.01 in   Overcast
1:35 AM 26.6 °F 14.7 °F 21.2 °F 80% 29.05 in 10.0 mi North 15.0 mph 24.2 mph 0.01 in   Overcast
1:55 AM 24.8 °F 10.7 °F 21.2 °F 86% 29.04 in 10.0 mi NNE 19.6 mph 34.5 mph 0.01 in   Overcast
2:15 AM 24.8 °F 14.6 °F 19.4 °F 80% 29.05 in 10.0 mi North 10.4 mph 28.8 mph N/A   Overcast
2:35 AM 23.0 °F 11.1 °F 19.4 °F 86% 29.05 in 10.0 mi NNE 12.7 mph 23.0 mph N/A   Overcast
2:55 AM 21.2 °F 7.8 °F 17.6 °F 86% 29.05 in 5.0 mi North 15.0 mph 29.9 mph 0.01 in   Overcast
3:15 AM 21.2 °F 10.1 °F 17.6 °F 86% 29.06 in 5.0 mi North 10.4 mph 24.2 mph 0.01 in   Overcast
3:35 AM 21.2 °F 10.1 °F 15.8 °F 80% 29.04 in 9.0 mi North 10.4 mph 26.5 mph 0.01 in   Overcast
3:55 AM 19.4 °F 8.6 °F 15.8 °F 86% 29.08 in 10.0 mi NNW 9.2 mph 23.0 mph 0.01 in   Overcast
4:15 AM 19.4 °F 6.0 °F 14.0 °F 80% 29.07 in 10.0 mi North 13.8 mph 25.3 mph N/A   Overcast
4:35 AM 19.4 °F 6.0 °F 14.0 °F 80% 29.05 in 10.0 mi North 13.8 mph 26.5 mph N/A   Overcast
4:55 AM 19.4 °F 3.2 °F 14.0 °F 80% 29.07 in 10.0 mi NNE 20.7 mph 34.5 mph N/A   Overcast
5:15 AM 17.6 °F -0.6 °F 14.0 °F 86% 29.03 in 10.0 mi NNE 25.3 mph 38.0 mph N/A   Overcast
5:35 AM 19.4 °F 5.0 °F 15.8 °F 86% 29.02 in 10.0 mi North 16.1 mph 29.9 mph N/A   Overcast
5:55 AM 19.4 °F 3.6 °F 14.0 °F 80% 29.06 in 8.0 mi North 19.6 mph 34.5 mph 0.01 in   Overcast
6:15 AM 17.6 °F 3.7 °F 14.0 °F 86% 29.10 in 5.0 mi North 13.8 mph 25.3 mph N/A   Overcast
6:35 AM 17.6 °F 6.4 °F 12.2 °F 79% 29.12 in 5.0 mi NNW 9.2 mph 18.4 mph N/A   Overcast
6:55 AM 17.6 °F 4.3 °F 12.2 °F 79% 29.15 in 4.0 mi NNW 12.7 mph 20.7 mph N/A   Overcast
7:15 AM 17.6 °F 6.4 °F 12.2 °F 79% 29.13 in 1.8 mi North 9.2 mph 24.2 mph N/A   Overcast
7:35 AM 17.6 °F 3.7 °F 12.2 °F 79% 29.16 in 1.0 mi North 13.8 mph 21.9 mph N/A   Overcast
7:55 AM 17.6 °F 5.0 °F 12.2 °F 79% 29.16 in 1.0 mi North 11.5 mph 21.9 mph 0.01 in   Overcast
8:15 AM 17.6 °F 6.4 °F 12.2 °F 79% 29.16 in 1.0 mi North 9.2 mph 21.9 mph N/A   Overcast
8:35 AM 17.6 °F 6.4 °F 12.2 °F 79% 29.17 in 1.5 mi North 9.2 mph 24.2 mph N/A   Overcast
8:55 AM 17.6 °F 3.7 °F 12.2 °F 79% 29.18 in 2.0 mi North 13.8 mph 26.5 mph N/A   Overcast
9:15 AM 17.6 °F 4.3 °F 10.4 °F 73% 29.19 in 2.5 mi North 12.7 mph 25.3 mph N/A   Overcast
9:35 AM 17.6 °F 5.7 °F 12.2 °F 79% 29.19 in 2.0 mi North 10.4 mph 23.0 mph N/A   Overcast
9:55 AM 15.8 °F 4.2 °F 12.2 °F 86% 29.20 in 1.2 mi North 9.2 mph 23.0 mph N/A   Overcast
10:15 AM 15.8 °F 2.7 °F 10.4 °F 79% 29.20 in 1.2 mi NNW 11.5 mph 24.2 mph N/A   Overcast
10:35 AM 17.6 °F 4.3 °F 10.4 °F 73% 29.22 in 3.0 mi NNW 12.7 mph 20.7 mph N/A   Overcast
10:55 AM 17.6 °F 3.7 °F 10.4 °F 73% 29.23 in 4.0 mi North 13.8 mph 23.0 mph N/A   Overcast
11:15 AM 17.6 °F 4.3 °F 10.4 °F 73% 29.24 in 5.0 mi North 12.7 mph 20.7 mph N/A   Overcast
11:35 AM 17.6 °F 4.3 °F 8.6 °F 68% 29.25 in 4.0 mi North 12.7 mph 25.3 mph N/A   Overcast
11:55 AM 17.6 °F 5.7 °F 8.6 °F 68% 29.26 in 7.0 mi NNW 10.4 mph 24.2 mph N/A   Overcast
12:15 PM 17.6 °F 8.2 °F 10.4 °F 73% 29.28 in 5.0 mi NNW 6.9 mph 19.6 mph N/A   Overcast
12:35 PM 19.4 °F 9.5 °F 10.4 °F 68% 29.29 in 4.0 mi NNW 8.1 mph 18.4 mph N/A   Overcast
12:55 PM 19.4 °F 9.5 °F 12.2 °F 74% 29.30 in 1.2 mi NNW 8.1 mph 18.4 mph N/A   Overcast
1:15 PM 17.6 °F 8.2 °F 12.2 °F 79% 29.32 in 1.0 mi NW 6.9 mph 17.3 mph N/A   Overcast
1:35 PM 17.6 °F 5.7 °F 10.4 °F 73% 29.33 in 1.0 mi NW 10.4 mph 19.6 mph N/A   Overcast
1:55 PM 17.6 °F 3.7 °F 12.2 °F 79% 29.33 in 1.5 mi WNW 13.8 mph 19.6 mph N/A   Overcast
2:15 PM 17.6 °F 4.3 °F 10.4 °F 73% 29.34 in 1.5 mi NW 12.7 mph 23.0 mph N/A   Overcast
2:35 PM 17.6 °F 2.7 °F 12.2 °F 79% 29.35 in 1.8 mi WNW 16.1 mph 24.2 mph N/A   Overcast
2:55 PM 17.6 °F 3.2 °F 8.6 °F 68% 29.36 in 1.8 mi NW 15.0 mph 28.8 mph N/A   Overcast
3:15 PM 17.6 °F 3.2 °F 12.2 °F 79% 29.38 in 1.5 mi WNW 15.0 mph 19.6 mph N/A   Overcast
3:35 PM 17.6 °F 4.3 °F 12.2 °F 79% 29.39 in 1.0 mi WNW 12.7 mph 19.6 mph N/A   Overcast
3:55 PM 19.4 °F 7.2 °F 10.4 °F 68% 29.40 in 4.0 mi NW 11.5 mph 19.6 mph N/A   Mostly Cloudy
4:15 PM 19.4 °F 12.8 °F 12.2 °F 74% 29.42 in 3.0 mi NNW 4.6 mph 16.1 mph N/A   Mostly Cloudy
4:35 PM 19.4 °F 7.2 °F 8.6 °F 63% 29.43 in 8.0 mi NW 11.5 mph 20.7 mph N/A   Partly Cloudy
4:55 PM 19.4 °F 7.2 °F 10.4 °F 68% 29.45 in 7.0 mi NW 11.5 mph 19.6 mph N/A   Scattered Clouds
5:15 PM 17.6 °F 9.3 °F 14.0 °F 86% 29.46 in 1.8 mi NW 5.8 mph - N/A   Overcast
5:35 PM 17.6 °F 5.7 °F 10.4 °F 73% 29.48 in 9.0 mi NW 10.4 mph 17.3 mph N/A   Mostly Cloudy
5:55 PM 17.6 °F 3.7 °F 10.4 °F 73% 29.50 in 8.0 mi NW 13.8 mph 23.0 mph N/A   Mostly Cloudy
6:15 PM 17.6 °F 3.7 °F 10.4 °F 73% 29.52 in 5.0 mi WNW 13.8 mph 20.7 mph N/A   Mostly Cloudy
6:35 PM 15.8 °F 2.1 °F 8.6 °F 73% 29.54 in 3.0 mi WNW 12.7 mph 17.3 mph N/A   Scattered Clouds
6:55 PM 15.8 °F 1.4 °F 8.6 °F 73% 29.57 in 9.0 mi WNW 13.8 mph - N/A   Mostly Cloudy
7:15 PM 15.8 °F 3.4 °F 8.6 °F 73% 29.59 in 5.0 mi WNW 10.4 mph 20.7 mph N/A   Overcast
7:35 PM 15.8 °F 1.4 °F 8.6 °F 73% 29.60 in 10.0 mi WNW 13.8 mph 21.9 mph N/A   Overcast
7:55 PM 15.8 °F 1.4 °F 6.8 °F 68% 29.62 in 10.0 mi WNW 13.8 mph 20.7 mph N/A   Scattered Clouds
8:15 PM 15.8 °F 4.2 °F 5.0 °F 62% 29.64 in 9.0 mi NW 9.2 mph 26.5 mph N/A   Scattered Clouds
8:35 PM 15.8 °F 2.1 °F 3.2 °F 58% 29.66 in 10.0 mi WNW 12.7 mph 23.0 mph N/A   Partly Cloudy
8:55 PM 15.8 °F 3.4 °F 3.2 °F 58% 29.68 in 10.0 mi WNW 10.4 mph 18.4 mph N/A   Clear
9:15 PM 14.0 °F 2.0 °F 5.0 °F 67% 29.70 in 10.0 mi WNW 9.2 mph - N/A   Clear
9:35 PM 14.0 °F 2.0 °F 6.8 °F 73% 29.71 in 10.0 mi WNW 9.2 mph 16.1 mph N/A   Clear
9:55 PM 12.2 °F -1.0 °F 6.8 °F 79% 29.73 in 10.0 mi WNW 10.4 mph - N/A   Clear
10:15 PM 12.2 °F -1.0 °F 3.2 °F 67% 29.74 in 10.0 mi WNW 10.4 mph - N/A   Clear
10:35 PM 12.2 °F -2.5 °F 3.2 °F 67% 29.75 in 10.0 mi West 12.7 mph - N/A   Clear
10:55 PM 12.2 °F -1.8 °F 3.2 °F 67% 29.76 in 10.0 mi West 11.5 mph - N/A   Clear
11:15 PM 12.2 °F -1.8 °F 3.2 °F 67% 29.77 in 10.0 mi West 11.5 mph - N/A   Clear
11:35 PM 12.2 °F -1.0 °F 3.2 °F 67% 29.78 in 10.0 mi West 10.4 mph - N/A   Clear
11:55 PM 12.2 °F -1.0 °F 3.2 °F 67% 29.79 in 10.0 mi West 10.4 mph - N/A   Clear